Home > Weather > St. Paul > Past weeks

Flag for USA Past Weather in St. Paul, Minnesota, USA — Yesterday and Last 2 Weeks

Now
86 °F

Sunny.


Feels Like: 84 °F
Forecast: 67 / 85 °F
Wind: 15 mph from West

Location: St. Paul Downtown Holman Field

Current Time: Jun 26, 2016 at 5:47:04 PM

Latest Report: Jun 26, 2016 at 4:53 PM


Visibility: 10 mi

Pressure: 29.90 "Hg

Humidity: 31%

Dew Point: 52 °F

Location of St. PaulLocation

Past Weather in St. Paul — Graph

°F

St. Paul Temperature Yesterday

Maximum temperature yesterday: 95 °F (at 3:53 PM)
Minimum temperature yesterday: 72 °F (at 4:53 AM)
Average temperature yesterday: 82 °F

High & Low Weather Summary for the Past Weeks

 TemperatureHumidityPressure
High95 °F (Jun 25, 3:53 PM)100% (Jun 24, 6:53 AM)30.18 "Hg (Jun 24, 6:53 AM)
Low57 °F (Jun 21, 4:53 AM)31% (Jun 20, 3:53 PM)29.61 "Hg (Jun 14, 8:53 PM)
Average73 °F68%29.93 "Hg
* Reported Jun 11 3:53 PM — Jun 26 3:53 PM, St. Paul, Weather by CustomWeather, © 2016

Note: Actual official high and low records may vary slightly from our data, if they occured in-between our weather recording intervals... More about our weather records

Advertising

St. Paul Weather History for the Previous 24 Hours

Scroll right to see more
 ConditionsComfort  
Time TempWeatherWind HumidityBarometerVisibility
3:53 PM
Sun, Jun 26
86 °FSunny.17 mph32%29.92 "Hg10 mi
2:53 PM85 °FSunny.23 mph34%29.92 "Hg10 mi
1:53 PM84 °FSunny.21 mph33%29.93 "Hg10 mi
12:53 PM83 °FSunny.22 mph33%29.93 "Hg10 mi
11:53 AM82 °FSunny.20 mph34%29.93 "Hg10 mi
10:53 AM79 °FSunny.14 mph39%29.95 "Hg10 mi
9:53 AM77 °FSunny.13 mph42%29.96 "Hg10 mi
8:53 AM76 °FSunny.10 mph42%29.95 "Hg10 mi
7:53 AM74 °FSunny.7 mph46%29.93 "Hg10 mi
6:53 AM69 °FSunny.7 mph68%29.92 "Hg10 mi
5:53 AM67 °FClear.5 mph76%29.92 "Hg10 mi
4:53 AM68 °FClear.No wind76%29.89 "Hg10 mi
3:53 AM69 °FClear.5 mph79%29.86 "Hg10 mi
2:53 AM71 °FClear.7 mph76%29.85 "Hg10 mi
1:53 AM73 °FClear.7 mph74%29.83 "Hg10 mi
12:53 AM74 °FClear.6 mph74%29.85 "Hg10 mi
11:53 PM
Sat, Jun 25
77 °FClear.7 mph71%29.85 "Hg10 mi
10:53 PM79 °FPassing clouds.9 mph69%29.83 "Hg10 mi
9:53 PM81 °FPartly sunny.10 mph67%29.80 "Hg10 mi
8:53 PM82 °FSunny.14 mph65%29.76 "Hg10 mi
7:53 PM85 °FBroken clouds.18 mph61%29.75 "Hg10 mi
6:53 PM89 °FThunderstorms. Scattered clouds.21 mph55%29.69 "Hg10 mi
5:53 PM90 °FCloudy.18 mph52%29.66 "Hg10 mi
Weather by CustomWeather, © 2016

See weather overviewHow to use our weather pages